Temperature
18 17 18 18 18 18 18 18 18 18 18 18 18 18 18 18 18 18 18 18 18 18 18 18 18 18 18 18 18 18 18 18 18 18 18 18 17 17 17 17 17 17 17
18 17 18 18 18 18 18 18 18 18 18 18 18 18 18 18 18 18 18 18 18 18 18 18 18 18 18 18 18 18 18 17 17 17 17 17 17 17 17 17 17 17 17
18 17 17 18 18 18 18 18 18 18 18 18 18 18 18 18 18 18 18 18 18 18 18 18 18 18 18 18 17 17 17 17 17 17 17 16 17 17 17 17 17 17 17
18 18 17 18 18 18 18 18 18 18 18 18 18 18 18 18 18 18 18 18 18 18 18 18 18 18 18 18 17 17 17 17 17 17 17 17 16 17 17 17 17 17 17
18 18 18 18 18 18 18 18 18 18 18 18 18 18 18 18 18 18 18 18 18 18 18 18 17 18 18 17 17 17 17 17 17 17 17 17 16 17 17 17 17 17 17
18 18 18 18 18 18 18 18 18 18 18 18 18 18 18 18 18 18 18 18 18 18 18 18 18 18 18 17 17 17 17 17 17 17 17 17 17 17 17 17 17 17 16
18 18 17 18 18 18 18 18 18 18 18 18 18 18 18 18 18 18 18 18 17 17 17 18 18 18 18 18 18 18 17 17 17 17 16 17 17 17 17 17 17 17 16
18 18 17 18 18 18 18 18 18 18 18 18 18 18 18 18 18 18 18 18 18 18 18 18 18 18 18 18 18 18 17 17 17 17 17 17 17 17 17 17 17 17 16
18 18 18 17 18 18 18 18 18 18 18 18 18 18 18 18 18 18 18 18 18 18 18 18 18 18 18 18 18 18 18 17 18 17 17 17 17 17 17 17 17 16 16
18 18 18 18 17 17 17 18 18 18 18 18 18 18 18 18 18 18 18 18 18 18 18 18 18 18 18 18 18 18 18 18 18 17 17 17 17 17 17 17 17 16 16
18 18 18 18 17 17 17 17 18 18 18 18 18 18 17 17 17 17 17 18 18 18 18 18 18 18 18 18 18 18 17 18 18 18 17 17 17 17 17 17 17 17 16
18 18 18 18 18 18 17 17 17 17 17 17 17 17 17 17 17 17 18 18 18 18 18 18 18 18 18 18 18 18 18 18 18 17 17 17 17 17 17 17 17 17 17
18 18 18 18 18 18 18 18 17 17 17 17 17 17 17 17 17 17 17 17 17 17 17 17 17 17 18 18 18 18 18 18 18 18 17 17 17 17 17 17 17 17 17
19 18 18 18 18 18 18 18 18 18 17 17 17 17 17 17 17 17 17 17 17 17 17 17 17 17 17 17 17 18 18 18 18 18 17 17 17 17 17 17 17 17 16
18 18 18 18 18 18 18 18 18 18 18 18 17 17 17 18 17 17 17 17 17 17 17 17 17 17 17 17 17 17 17 17 17 17 17 17 17 17 17 17 17 17 16
19 19 18 18 18 18 18 18 18 18 18 18 17 17 17 17 17 17 17 17 17 17 17 17 17 17 17 17 17 17 17 17 17 17 17 17 17 17 17 17 17 16 16
19 19 18 18 18 18 18 18 18 18 18 18 18 18 18 17 18 17 17 17 17 17 17 17 17 17 17 17 17 17 17 17 17 17 17 17 17 17 17 17 17 17 16
19 18 18 18 18 18 18 18 18 18 18 18 18 18 18 18 17 18 18 18 18 17 17 17 17 17 17 17 17 17 17 17 17 17 17 17 17 17 17 17 17 17 16
19 19 18 18 18 18 18 18 18 18 18 18 18 18 18 18 18 18 18 18 18 17 17 18 17 17 17 17 17 17 17 17 17 17 17 17 17 16 16 16 17 17 16
19 19 19 18 18 18 18 18 18 18 18 18 18 18 18 18 18 18 18 18 18 18 18 17 17 17 17 17 18 18 17 17 17 17 17 17 17 16 16 16 16 16 16
19 19 19 19 19 19 18 18 18 18 18 18 18 18 18 18 18 18 18 18 18 18 17 17 17 17 17 17 17 17 17 17 17 17 17 17 17 16 16 16 16 16 16
20 20 19 19 19 19 19 19 18 18 18 18 18 18 18 18 18 18 18 18 18 18 17 17 17 17 17 17 17 17 17 17 17 17 16 16 16 16 16 16 16 16 15
20 20 20 20 19 19 19 18 18 18 18 18 18 18 18 18 18 18 18 18 18 17 17 17 17 17 17 17 17 17 18 18 17 16 16 16 16 16 16 16 15 15 15
21 21 20 20 20 20 19 19 18 18 18 18 18 18 18 18 18 18 18 18 18 18 17 17 17 17 17 17 17 17 17 17 17 17 16 16 16 16 15 15 15 15 15
21 21 20 20 20 20 20 19 19 18 18 18 18 18 18 18 18 18 18 18 18 17 17 17 17 17 17 17 17 17 17 17 17 17 16 16 15 15 15 15 15 15 15
21 21 21 20 20 20 20 20 19 19 19 18 18 18 18 18 18 18 18 18 18 18 17 17 17 17 17 17 17 17 17 17 17 17 16 16 15 15 15 15 15 14 14
Wind_Speed
8 11 13 13 14 15 16 17 17 17 17 17 18 18 18 19 18 18 18 18 18 18 19 18 18 18 18 18 18 18 18 18 18 18 18 17 16 15 15 14 14 16 17
9 12 13 14 15 15 16 16 17 17 17 17 17 17 17 18 18 18 18 18 18 18 18 18 18 18 18 18 18 17 17 17 17 17 17 16 15 14 12 10 11 15 16
10 12 14 14 14 15 15 16 16 17 17 17 16 16 16 16 17 17 18 18 18 18 18 18 18 18 17 17 16 16 16 15 15 13 12 13 15 13 13 13 15 15 15
10 12 13 14 14 15 15 15 16 16 16 16 16 16 15 17 17 17 17 18 18 17 17 18 17 17 16 16 15 15 15 14 11 8 9 12 13 14 13 13 14 14 14
10 12 14 13 14 15 15 15 15 16 16 15 15 16 16 17 16 17 17 17 16 16 16 16 16 16 16 15 14 14 13 11 8 6 10 11 12 12 12 12 13 13 13
11 13 15 12 14 14 14 15 15 15 15 15 15 15 16 16 16 17 16 16 15 15 15 15 15 15 14 13 13 12 11 8 7 9 9 9 11 11 11 12 12 12 12
11 12 14 12 13 13 13 13 14 14 15 15 15 15 15 15 15 16 15 15 14 14 14 13 13 13 12 11 10 10 8 3 5 9 8 9 11 11 10 10 11 11 11
10 12 13 12 12 12 12 12 13 13 14 14 14 14 14 14 14 14 14 14 14 13 13 12 12 11 10 10 9 8 5 2 7 8 8 9 11 10 9 10 10 10 10
9 10 10 11 12 12 11 11 12 12 12 13 13 13 13 13 13 13 13 12 12 12 11 11 10 10 9 9 8 6 4 1 4 7 7 9 11 9 9 9 9 9 8
8 8 8 9 9 10 12 11 11 11 11 11 11 11 11 12 12 11 11 11 10 10 9 9 8 8 7 7 7 5 4 5 4 6 6 10 10 8 8 8 8 7 7
7 6 6 8 8 8 10 11 10 10 9 9 10 9 7 8 9 9 11 10 9 8 8 7 7 6 6 7 6 5 5 2 5 5 6 11 8 7 7 7 7 7 7
8 7 6 6 6 7 7 8 6 7 7 6 6 6 6 6 6 8 11 8 7 7 7 6 6 6 6 6 8 8 3 3 4 5 8 10 7 6 6 6 6 6 6
7 6 6 5 4 4 5 5 5 5 5 6 6 5 5 5 5 5 5 7 6 5 4 6 5 2 2 2 1 2 2 2 3 4 8 9 6 6 5 6 5 5 5
6 6 5 5 4 3 3 3 3 4 4 4 5 3 4 3 3 4 2 3 3 3 2 2 1 2 2 2 1 1 2 1 2 3 7 9 6 5 5 5 5 5 6
6 6 5 4 4 3 2 1 2 2 3 4 3 3 2 3 3 3 2 1 1 2 2 1 1 1 1 1 1 1 1 1 2 2 6 9 6 5 4 4 5 6 6
6 6 5 4 4 3 2 1 1 2 2 2 2 3 1 2 2 1 2 1 1 1 1 0 1 1 0 0 1 1 0 1 1 1 2 7 8 6 4 4 4 5 5
6 5 5 5 4 3 2 2 2 2 2 2 2 2 1 1 1 1 1 1 1 1 1 1 0 1 1 1 1 1 1 1 1 1 1 2 5 7 6 5 5 5 6
6 6 5 4 5 4 3 2 1 1 1 1 1 2 1 1 1 2 1 0 1 2 1 1 1 1 0 1 1 1 1 2 2 2 2 2 1 2 6 6 5 5 5
7 6 6 5 4 4 3 3 2 1 1 2 2 2 1 2 2 2 1 0 2 1 1 2 1 1 1 1 1 1 1 2 2 2 1 1 1 2 2 6 6 4 4
7 7 7 6 5 4 3 3 2 2 2 2 2 2 2 3 3 3 2 1 2 1 1 1 1 2 2 1 1 0 1 1 1 1 2 1 1 1 1 1 3 4 4
8 8 8 7 6 5 4 3 3 2 2 2 2 2 3 3 3 3 3 2 3 2 2 2 2 3 3 2 2 1 1 1 1 1 1 0 1 1 1 1 0 0 2
9 9 9 8 7 6 4 3 2 2 3 2 2 2 2 2 3 3 3 4 3 3 3 3 3 3 3 3 2 2 2 2 1 1 1 1 1 1 2 2 2 2 1
10 10 8 8 8 7 6 4 3 3 3 3 3 2 2 2 2 3 3 4 4 4 3 4 4 5 4 3 3 3 2 1 1 2 1 1 1 1 1 2 2 2 1
11 10 9 8 8 7 6 6 5 4 4 3 3 2 3 3 3 3 3 4 4 4 3 4 4 4 4 4 3 4 4 2 2 1 2 2 1 1 0 1 2 2 2
11 10 9 9 8 8 7 6 6 5 4 3 3 3 3 2 3 3 3 3 4 4 3 4 3 4 4 4 3 3 3 3 4 3 2 1 1 0 0 0 1 1 2
10 10 9 9 8 8 8 7 7 6 5 4 4 3 3 2 2 2 3 3 3 3 3 3 3 3 3 3 4 3 3 3 3 3 3 3 1 1 0 1 0 1 2
Wind_Direction
72 78 75 77 80 83 84 85 88 89 93 94 94 94 95 96 97 97 98 101 102 103 103 103 103 103 102 102 102 103 104 105 105 106 106 106 107 109 113 120 122 110 112
84 84 83 81 83 85 86 88 89 89 91 92 93 93 94 96 97 96 97 100 101 100 102 102 101 102 102 102 103 103 104 106 108 110 113 111 107 108 108 104 92 108 116
89 90 91 84 86 87 88 90 90 91 92 92 91 92 94 98 99 98 99 99 100 99 100 104 103 102 103 103 104 104 105 106 110 118 132 118 110 108 106 103 104 114 116
93 92 86 89 89 89 89 90 92 93 93 93 91 91 94 99 98 98 99 99 100 100 100 101 102 102 103 104 105 106 107 109 117 145 122 109 111 111 112 112 113 115 117
95 93 89 87 89 88 88 90 92 93 94 93 92 91 92 98 100 99 99 99 100 100 100 100 100 101 103 105 107 108 111 117 136 138 102 106 109 114 118 120 120 120 119
101 95 93 88 89 89 89 90 90 91 93 94 93 93 94 96 97 97 97 98 99 100 101 100 100 102 105 107 107 110 116 135 163 106 106 108 109 117 122 123 124 123 122
102 98 98 92 91 91 92 92 91 91 93 94 93 94 94 95 97 97 98 98 98 100 102 101 102 104 107 109 111 114 119 157 111 104 106 101 103 117 123 125 128 127 126
103 101 104 102 96 94 94 95 94 94 93 94 93 94 95 95 96 98 99 98 97 98 100 101 102 104 108 110 111 116 131 214 115 106 108 106 109 123 126 125 124 126 130
101 103 107 110 112 107 99 96 95 94 95 96 96 96 95 95 97 98 99 98 99 100 102 103 106 107 109 112 113 119 126 255 109 108 109 108 120 131 132 133 131 134 136
104 104 106 104 108 113 111 102 98 96 97 100 100 100 104 108 109 113 112 102 103 104 106 108 111 112 112 115 119 126 163 216 119 115 110 112 128 141 143 141 141 144 147
115 109 110 114 115 112 111 112 115 111 107 116 112 113 125 114 113 121 97 102 106 109 112 116 118 123 138 140 139 161 201 165 108 99 99 112 136 146 152 154 154 156 159
129 125 120 116 117 113 110 117 117 112 111 105 101 111 111 100 98 102 111 111 111 118 128 134 144 171 199 151 154 189 169 120 109 110 108 124 141 153 161 164 165 167 171
136 132 130 121 111 109 115 115 107 109 112 113 105 111 110 122 119 116 123 133 135 152 141 143 176 149 123 93 98 125 89 92 106 110 116 133 149 165 174 175 177 178 181
144 138 135 135 131 113 102 114 132 123 118 108 108 113 116 108 105 102 110 109 134 128 111 126 122 101 84 107 122 98 116 125 113 114 119 139 157 172 182 188 192 195 200
150 149 142 144 137 136 126 146 117 111 108 111 110 104 98 110 102 106 105 101 134 121 150 148 94 99 139 144 151 138 115 98 101 127 127 142 157 172 185 195 206 213 213
160 154 151 158 148 152 156 148 135 132 121 115 119 106 95 93 101 114 148 153 130 168 82 101 127 160 196 129 148 126 175 149 130 140 144 148 161 174 192 202 212 217 218
163 157 161 165 164 169 175 183 168 163 155 141 124 127 155 153 129 222 163 188 157 150 151 215 219 216 201 177 173 177 177 188 148 132 152 155 160 173 188 200 206 213 223
170 167 173 177 170 178 186 213 211 215 177 185 179 161 188 219 219 249 237 231 187 219 203 208 232 241 219 216 191 223 190 167 185 184 184 182 202 186 174 179 196 210 221
177 177 181 185 184 189 191 202 213 208 235 234 221 214 209 233 234 243 255 8 240 245 257 263 141 258 218 200 186 190 224 202 182 194 197 199 198 233 219 167 179 194 219
181 183 186 188 194 201 201 202 216 213 217 224 228 240 252 242 234 250 238 245 253 234 234 260 264 249 248 235 249 133 259 241 198 199 214 192 183 212 247 232 186 184 183
185 188 191 195 191 202 209 218 219 218 223 234 229 224 247 258 248 255 274 253 264 257 258 249 248 227 223 207 218 222 203 207 185 206 208 181 127 103 79 64 319 282 159
190 195 196 198 198 206 207 220 234 258 251 245 259 231 250 256 257 246 263 268 258 259 254 252 247 247 229 214 233 241 227 202 155 116 132 132 83 101 105 99 80 61 21
196 198 198 199 198 206 210 213 215 220 244 239 242 235 250 260 264 289 277 276 275 265 249 242 240 240 243 231 232 252 254 221 162 125 90 88 93 74 82 84 88 78 71
197 196 197 197 200 203 208 217 221 233 245 250 252 251 249 250 259 266 274 275 275 274 263 252 240 247 247 247 234 241 258 266 249 193 150 125 110 94 37 31 63 89 88
196 195 192 193 198 200 206 213 221 234 238 235 237 241 254 248 257 264 264 273 274 278 279 278 268 259 252 255 256 251 245 233 234 239 227 189 156 171 80 128 93 74 84
192 193 190 189 196 198 202 208 217 228 238 247 245 243 243 241 251 258 256 263 266 276 275 268 271 260 268 268 264 253 246 249 238 232 224 210 213 225 264 22 60 66 82
Height
1536 1534 1532 1531 1531 1530 1530 1529 1530 1529 1529 1530 1530 1531 1531 1532 1532 1533 1534 1535 1537 1538 1539 1540 1541 1542 1544 1545 1546 1547 1548 1549 1550 1551 1552 1553 1555 1556 1557 1558 1559 1560 1560
1538 1537 1535 1534 1534 1534 1534 1533 1533 1533 1533 1534 1534 1535 1535 1536 1536 1537 1538 1539 1540 1541 1542 1543 1544 1546 1547 1548 1549 1550 1551 1552 1553 1554 1555 1556 1557 1558 1559 1560 1561 1562 1562
1540 1539 1538 1538 1537 1537 1537 1537 1537 1537 1537 1537 1538 1538 1539 1539 1540 1541 1541 1542 1543 1544 1545 1546 1547 1548 1549 1551 1551 1552 1553 1554 1555 1557 1558 1560 1560 1560 1561 1562 1562 1563 1564
1543 1543 1541 1541 1540 1540 1540 1541 1541 1541 1541 1541 1541 1541 1541 1542 1543 1544 1545 1545 1547 1548 1548 1549 1551 1551 1552 1553 1554 1555 1556 1557 1558 1560 1562 1563 1562 1562 1563 1563 1564 1565 1566
1545 1545 1543 1543 1544 1544 1544 1544 1544 1544 1544 1545 1545 1545 1545 1545 1547 1547 1548 1549 1550 1551 1552 1553 1554 1554 1555 1556 1557 1558 1559 1560 1561 1563 1564 1565 1564 1563 1564 1565 1566 1567 1568
1548 1548 1546 1546 1547 1547 1547 1547 1548 1548 1548 1548 1548 1549 1549 1549 1550 1550 1551 1552 1553 1554 1555 1556 1557 1557 1558 1559 1560 1561 1562 1562 1564 1566 1566 1567 1566 1565 1565 1566 1567 1568 1569
1550 1550 1549 1549 1549 1550 1550 1550 1551 1551 1551 1551 1552 1552 1552 1552 1553 1553 1554 1555 1556 1557 1558 1559 1559 1560 1561 1562 1562 1563 1564 1565 1568 1568 1568 1568 1567 1567 1567 1568 1569 1569 1570
1552 1553 1552 1551 1552 1552 1553 1553 1553 1554 1554 1554 1555 1555 1555 1556 1556 1557 1557 1558 1559 1559 1560 1561 1562 1563 1564 1564 1565 1565 1566 1567 1569 1570 1570 1570 1568 1569 1569 1569 1570 1571 1571
1554 1555 1555 1555 1555 1555 1555 1556 1556 1556 1557 1557 1558 1558 1558 1559 1559 1560 1560 1561 1561 1562 1563 1564 1564 1565 1566 1566 1567 1567 1568 1568 1571 1571 1572 1571 1570 1570 1570 1571 1571 1572 1573
1556 1557 1558 1558 1558 1559 1559 1558 1559 1559 1559 1560 1560 1561 1561 1562 1562 1563 1563 1563 1564 1565 1565 1566 1566 1567 1568 1568 1569 1569 1569 1570 1573 1573 1573 1572 1571 1571 1571 1572 1572 1573 1573
1558 1558 1559 1560 1560 1561 1562 1561 1562 1562 1562 1562 1563 1563 1564 1565 1566 1566 1566 1566 1566 1567 1567 1567 1568 1568 1569 1570 1570 1570 1571 1573 1574 1574 1573 1572 1572 1572 1572 1573 1573 1573 1574
1560 1560 1561 1562 1563 1563 1564 1564 1565 1565 1565 1565 1565 1565 1566 1567 1568 1568 1568 1568 1568 1568 1569 1569 1569 1570 1571 1573 1572 1572 1574 1574 1574 1574 1573 1572 1572 1573 1573 1573 1574 1574 1574
1561 1562 1562 1563 1564 1565 1566 1566 1567 1567 1567 1567 1567 1567 1568 1569 1570 1570 1571 1570 1570 1570 1571 1570 1571 1573 1574 1573 1574 1574 1574 1574 1574 1574 1574 1573 1573 1573 1573 1574 1574 1574 1574
1562 1563 1564 1564 1565 1565 1567 1568 1568 1569 1569 1569 1569 1569 1570 1570 1571 1571 1571 1572 1572 1572 1572 1572 1572 1573 1573 1573 1574 1574 1574 1574 1575 1574 1573 1573 1573 1573 1573 1573 1574 1574 1574
1563 1564 1565 1565 1566 1566 1567 1568 1570 1570 1571 1570 1570 1570 1571 1572 1572 1572 1571 1572 1573 1573 1573 1572 1573 1573 1573 1573 1574 1574 1574 1574 1574 1574 1574 1573 1573 1573 1573 1573 1573 1573 1573
1564 1565 1566 1566 1567 1567 1568 1569 1570 1571 1570 1571 1572 1572 1571 1572 1572 1572 1572 1572 1572 1572 1573 1572 1573 1572 1573 1573 1573 1573 1573 1574 1573 1573 1574 1573 1572 1572 1572 1572 1572 1572 1572
1565 1565 1566 1567 1567 1568 1569 1569 1571 1571 1572 1572 1572 1572 1572 1572 1572 1572 1572 1572 1572 1572 1572 1572 1572 1572 1572 1573 1572 1572 1573 1572 1573 1572 1573 1573 1572 1571 1571 1571 1571 1571 1571
1564 1565 1566 1568 1568 1568 1569 1569 1571 1572 1572 1572 1572 1573 1572 1572 1572 1571 1572 1572 1571 1572 1572 1571 1571 1572 1572 1572 1571 1572 1572 1571 1571 1571 1571 1571 1571 1571 1570 1569 1569 1569 1569
1564 1565 1566 1567 1568 1568 1569 1569 1570 1571 1571 1572 1572 1573 1572 1572 1571 1571 1571 1571 1571 1571 1571 1571 1571 1571 1571 1571 1570 1570 1571 1570 1570 1570 1570 1570 1569 1569 1569 1568 1568 1567 1567
1563 1564 1565 1566 1567 1568 1569 1569 1570 1570 1571 1571 1572 1571 1571 1572 1571 1571 1571 1570 1570 1570 1570 1569 1569 1569 1569 1569 1569 1569 1569 1569 1569 1568 1568 1568 1568 1567 1567 1567 1567 1566 1565
1562 1563 1564 1565 1566 1567 1568 1569 1570 1570 1571 1571 1571 1571 1571 1571 1571 1570 1570 1569 1569 1569 1568 1569 1568 1568 1568 1568 1568 1567 1567 1567 1567 1566 1566 1566 1566 1565 1565 1565 1565 1565 1564
1560 1561 1563 1564 1565 1566 1567 1568 1569 1569 1570 1570 1570 1570 1570 1570 1569 1570 1568 1568 1568 1567 1567 1566 1566 1566 1566 1566 1566 1566 1566 1566 1565 1565 1564 1564 1564 1564 1564 1563 1563 1562 1562
1559 1560 1561 1562 1564 1565 1566 1567 1568 1568 1568 1569 1569 1569 1568 1568 1568 1567 1567 1566 1566 1566 1566 1565 1564 1564 1565 1564 1564 1564 1564 1563 1563 1564 1563 1562 1562 1562 1562 1562 1561 1561 1560
1556 1558 1559 1561 1562 1563 1564 1565 1566 1566 1567 1567 1567 1567 1567 1566 1566 1565 1565 1564 1564 1564 1563 1563 1563 1563 1562 1562 1562 1561 1562 1561 1562 1562 1562 1561 1561 1560 1560 1561 1560 1559 1559
1554 1556 1557 1559 1560 1561 1562 1563 1563 1565 1566 1566 1566 1565 1565 1565 1564 1563 1563 1563 1562 1562 1561 1561 1561 1560 1560 1560 1560 1559 1559 1559 1559 1560 1560 1561 1560 1560 1559 1559 1559 1558 1558
1552 1554 1555 1556 1557 1558 1559 1560 1561 1562 1563 1563 1563 1564 1563 1563 1562 1561 1561 1560 1560 1560 1559 1559 1558 1558 1558 1557 1557 1557 1557 1557 1557 1557 1557 1558 1558 1558 1557 1557 1557 1557 1557